Location: Artiguedieu
(43.5000°N, 0.5454°E)
Time: 06:41:25
(UTC+00:00)

Cosmos 2228 Rocket - Pass Details

Date: 06 December 2020
Orbit: 618 x 652 km, 82.5° (Epoch: 19 January)

Event Time Altitude Azimuth Distance (km) Brightness Sun altitude
Exits shadow 05:11:09 59° 239° (WSW) 719 3.1 -22.0°
Drops below altitude 10° 05:15:06 10° 185° (S) 1,976 5.7 -21.3°
Sets 05:17:19 0° 182° (S) 2,878 6.6 -20.9°
